[[{"header":{"parameterUnit":"m.s-1","parameterCategory":2,"la1":30.2991,"la2":30.254,"lo1":-89.0895,"lo2":-89.0444,"dy":0.0017,"dx":0.0017,"nx":28,"ny":28,"refTime":"2024-03-27T09:00:00:Z","depth":"0","parameterNumber":2,"parameterNumberName":"U-component_of_CURRENTS"},"data":[0,0,0,0,0,0,0,0,0,0,0,0,0,0,0,0,0,0,0,0,0,0,0,0,0,0,0,0,0,0,0,0,0,0,0,0,0,0,0,0,0,0,0,0,0,0,0,0,0,0,0,0,0,0,0,0,0,0,0.2316,0.2317,0,0.2375,0.2376,0.2376,0.2378,0.2378,0.2377,0.2377,0.2404,0.2405,0.2406,0,0,0,0,0,0,0,0,0,0,0,0,0,0.2213,0.2214,0.2316,0.2317,0.2318,0.2375,0.2376,0.2376,0.2378,0.2378,0.2377,0.2376,0.2404,0.2405,0.2406,0,0,0,0,0,0,0,0,0,0,0,0,0,0.2261,0.2215,0.2316,0.2328,0.233,0.2375,0.2376,0.2377,0.2378,0.2378,0.2377,0.2376,0.2403,0.2405,0.2407,0.2432,0,0,0.2412,0.2413,0,0,0,0,0,0,0,0,0.2258,0.2264,0.2325,0.2327,0.2329,0.2371,0.235,0.2394,0.2378,0.2357,0.2377,0.2376,0.2392,0.2395,0.2404,0.2433,0.2434,0.2412,0.2413,0.2414,0.2415,0,0,0,0,0,0,0,0.2255,0.2262,0.2337,0.2326,0.2329,0.2333,0.2339,0.2358,0.2375,0.2359,0.236,0.2371,0.2393,0.2403,0.2405,0.2435,0.2412,0.2414,0.2415,0.2415,0.2509,0.251,0,0,0,0,0,0,0.2254,0.2259,0.2335,0.2339,0.2294,0.2336,0.2342,0.2356,0.2376,0.2379,0.2371,0.2371,0.24,0.2403,0.2406,0.2458,0.2414,0.2416,0.2417,0.2507,0.2509,0.251,0,0,0,0,0,0,0.2251,0.226,0.2333,0.2302,0.2312,0.2339,0.2354,0.2358,0.2371,0.2386,0.2388,0.2382,0.24,0.2403,0.2429,0.2458,0.2416,0.2418,0.2505,0.2508,0.251,0.2549,0,0,0,0,0,0,0.2248,0.2259,0.2269,0.2302,0.2314,0.2369,0.2355,0.2359,0.238,0.238,0.2396,0.2398,0.2399,0.2427,0.2431,0.246,0.2419,0.2504,0.2506,0.2509,0.2546,0.2552,0.2557,0,0,0,0,0,0.2244,0.2262,0.2269,0.2278,0.2326,0.237,0.2376,0.239,0.2382,0.2397,0.2404,0.2397,0.2447,0.2429,0.2434,0.2464,0.2502,0.2506,0.2509,0.2543,0.2551,0.2557,0,0,0,0,0,0,0.2218,0.2265,0.2273,0.2303,0.2338,0.2371,0.239,0.2396,0.2414,0.2412,0.2413,0.2417,0.2453,0.2454,0.2434,0.2499,0.2475,0.2479,0.25,0.2507,0.2512,0.2545,0.2421,0,0,0,0,0,0.222,0.2248,0.2289,0.2314,0.2334,0.2362,0.238,0.2393,0.2415,0.2422,0.2432,0.2447,0.2471,0.2483,0.2503,0.2536,0.2577,0.256,0.2566,0.2571,0.2601,0.2692,0.2709,0.2521,0.2521,0.2521,0,0,0.2215,0.2247,0.226,0.2312,0.2339,0.2376,0.2371,0.2408,0.2435,0.2423,0.2457,0.2469,0.2485,0.2524,0.254,0.2527,0.2643,0.2575,0.2579,0.2607,0.2697,0.2716,0.2732,0.2523,0.2523,0.2522,0,0,0.2229,0.2253,0.2283,0.2317,0.2368,0.2389,0.2401,0.2441,0.2456,0.2492,0.2493,0.2525,0.2551,0.2578,0.2591,0.2644,0.2671,0.2645,0.2701,0.2788,0.2805,0.282,0.2882,0.2903,0.2647,0.2647,0.2647,0,0.222,0.2267,0.2298,0.234,0.2372,0.2396,0.2436,0.246,0.2499,0.2534,0.2507,0.2592,0.2583,0.2663,0.2669,0.266,0.271,0.2669,0.2798,0.2814,0.2829,0.2889,0.2912,0.2649,0.2649,0.2649,0.2648,0,0.226,0.2297,0.2321,0.2381,0.2419,0.2458,0.2501,0.2539,0.2553,0.2586,0.2665,0.2672,0.2734,0.2724,0.2705,0.2812,0.2813,0.2795,0.2781,0.2851,0.2909,0.2931,0.2652,0.2652,0.2651,0.265,0,0,0.2234,0.2329,0.2335,0.2375,0.2445,0.2481,0.2542,0.2617,0.2669,0.271,0.2794,0.2823,0.2851,0.287,0.2867,0.2921,0.3035,0.2903,0.2906,0.2967,0.3231,0.3264,0.3291,0.3048,0.3053,0.3056,0.3224,0,0.2254,0.2332,0.2377,0.2448,0.2495,0.2551,0.2605,0.2676,0.2728,0.2811,0.2865,0.2931,0.2902,0.2931,0.2995,0.3022,0.31,0.2992,0.3153,0.3158,0.3182,0.3321,0.3189,0.3332,0.3246,0.325,0.3252,0,0.2277,0.233,0.2399,0.25,0.2525,0.2563,0.2676,0.2729,0.2853,0.29,0.3009,0.3056,0.316,0.3107,0.3262,0.32,0.3238,0.3253,0.326,0.3302,0.3236,0.3252,0.3377,0.327,0.3287,0.3284,0.3282,0,0.2247,0.2346,0.24,0.2432,0.254,0.2585,0.2641,0.2756,0.2816,0.2967,0.3036,0.3184,0.3242,0.3346,0.34,0.3346,0.3561,0.3485,0.3566,0.3566,0.3495,0.3484,0.3543,0.3631,0.3631,0.363,0.363,0,0.2254,0.2301,0.2386,0.2414,0.2482,0.2567,0.2648,0.2732,0.2859,0.2952,0.3078,0.3189,0.3306,0.3439,0.3483,0.3624,0.365,0.3633,0.3642,0.3502,0.349,0.3425,0.3344,0.3637,0.3635,0.3634,0.3633,0,0.2227,0.2277,0.234,0.2439,0.2467,0.2511,0.2625,0.269,0.2816,0.2948,0.3005,0.3211,0.3397,0.3527,0.3684,0.3721,0.3749,0.388,0.3704,0.3693,0.365,0.3576,0.3586,0.3479,0.4005,0.4007,0.4009,0,0.2242,0.2261,0.2332,0.2347,0.2386,0.2459,0.251,0.2645,0.2725,0.2964,0.3033,0.3265,0.3425,0.3704,0.3828,0.3989,0.3832,0.395,0.383,0.3694,0.3617,0.3456,0.3351,0.3732,0.3731,0.3731,0.373,0,0.2262,0.2258,0.2297,0.2316,0.2351,0.2405,0.2495,0.2544,0.2722,0.2845,0.3045,0.3195,0.3505,0.3643,0.388,0.3952,0.3758,0.3949,0.3854,0.3484,0.3267,0.315,0.3553,0.3727,0.3727,0.3727,0.3728,0.3728,0.2274,0.2278,0.2295,0.2308,0.2327,0.2351,0.2372,0.2486,0.2598,0.2775,0.2972,0.3157,0.3417,0.3743,0.3785,0.3809,0.377,0.3728,0.3673,0.3541,0.3375,0.3788,0.3945,0.3946,0.3948,0.3949,0.395,0,0.2311,0.2295,0.2296,0.2294,0.2275,0.2309,0.2368,0.2383,0.2476,0.2665,0.2836,0.3104,0.327,0.3441,0.36,0.353,0.3343,0.346,0.3159,0.3085,0.3506,0.343,0.3426,0.3426,0.3426,0.3426,0.3427,0.3427,0.2336,0.2327,0.2305,0.2259,0.2238,0.2213,0.2223,0.2253,0.235,0.2495,0.2642,0.2832,0.3129,0.3356,0.3335,0.3261,0.2971,0.2911,0.2882,0.3128,0.3145,0.3161,0.3072,0.2994,0.2993,0.233,0.2325,0.2321]},{"header":{"parameterUnit":"m.s-1","parameterCategory":2,"la1":30.2991,"la2":30.254,"lo1":-89.0895,"lo2":-89.0444,"dy":0.0017,"dx":0.0017,"nx":28,"ny":28,"refTime":"2024-03-27T09:00:00:Z","depth":"0","parameterNumber":3,"parameterNumberName":"V-component_of_CURRENTS"},"data":[0,0,0,0,0,0,0,0,0,0,0,0,0,0,0,0,0,0,0,0,0,0,0,0,0,0,0,0,0,0,0,0,0,0,0,0,0,0,0,0,0,0,0,0,0,0,0,0,0,0,0,0,0,0,0,0,0,0,-0.0157,-0.0157,0,-0.0225,-0.0226,-0.0227,-0.0277,-0.0277,-0.0277,-0.0278,-0.0373,-0.0375,-0.0377,0,0,0,0,0,0,0,0,0,0,0,0,0,-0.0115,-0.0115,-0.0157,-0.0157,-0.0158,-0.0225,-0.0226,-0.0227,-0.0277,-0.0277,-0.0278,-0.0278,-0.0372,-0.0375,-0.0377,0,0,0,0,0,0,0,0,0,0,0,0,0,-0.0154,-0.0116,-0.0156,-0.019,-0.0194,-0.0225,-0.0226,-0.0227,-0.0277,-0.0277,-0.0278,-0.0278,-0.0371,-0.0374,-0.0378,-0.0387,0,0,-0.0388,-0.0389,0,0,0,0,0,0,0,0,-0.0152,-0.0155,-0.0185,-0.0188,-0.0192,-0.0242,-0.0246,-0.0282,-0.0276,-0.0246,-0.0278,-0.0278,-0.0331,-0.0337,-0.035,-0.0392,-0.0396,-0.0388,-0.039,-0.0391,-0.0392,0,0,0,0,0,0,0,-0.0149,-0.0153,-0.0184,-0.0185,-0.019,-0.0218,-0.0224,-0.0253,-0.0286,-0.0249,-0.0252,-0.0259,-0.0333,-0.0346,-0.0352,-0.0397,-0.0388,-0.0391,-0.0393,-0.0394,-0.0465,-0.0464,0,0,0,0,0,0,-0.0136,-0.015,-0.0182,-0.0186,-0.0172,-0.0218,-0.0225,-0.0226,-0.0285,-0.0294,-0.0258,-0.0261,-0.034,-0.0348,-0.0356,-0.0363,-0.0391,-0.0394,-0.0396,-0.0465,-0.0465,-0.0464,0,0,0,0,0,0,-0.0135,-0.0138,-0.0179,-0.017,-0.0177,-0.0218,-0.022,-0.0227,-0.024,-0.0291,-0.0301,-0.0262,-0.0341,-0.0351,-0.0376,-0.0368,-0.0396,-0.0399,-0.0465,-0.0465,-0.0465,-0.0383,0,0,0,0,0,0,-0.0133,-0.0137,-0.0131,-0.0168,-0.0177,-0.019,-0.0219,-0.0228,-0.0243,-0.0247,-0.0298,-0.0308,-0.0342,-0.0371,-0.0379,-0.0373,-0.0402,-0.0465,-0.0465,-0.0465,-0.0386,-0.038,-0.0375,0,0,0,0,0,-0.0131,-0.0115,-0.013,-0.0134,-0.0168,-0.0189,-0.0196,-0.0228,-0.0242,-0.0242,-0.0277,-0.0306,-0.0376,-0.0373,-0.0383,-0.0377,-0.0465,-0.0465,-0.0465,-0.0388,-0.0381,-0.0375,0,0,0,0,0,0,-0.0092,-0.012,-0.0137,-0.0131,-0.0156,-0.0197,-0.0196,-0.0221,-0.0249,-0.025,-0.0301,-0.0313,-0.0334,-0.0367,-0.0363,-0.0399,-0.0427,-0.0429,-0.0366,-0.0359,-0.0354,-0.0323,-0.0404,0,0,0,0,0,-0.0081,-0.0078,-0.0114,-0.0108,-0.0116,-0.0156,-0.0168,-0.0189,-0.0219,-0.0232,-0.027,-0.0309,-0.0341,-0.0358,-0.0392,-0.0407,-0.0425,-0.0413,-0.0407,-0.0403,-0.0385,-0.0401,-0.0395,-0.0464,-0.0464,-0.0464,0,0,-0.0064,-0.0079,-0.0078,-0.01,-0.0121,-0.0123,-0.0164,-0.0173,-0.0176,-0.0237,-0.0249,-0.029,-0.0341,-0.0359,-0.0372,-0.0386,-0.0394,-0.0402,-0.0397,-0.0383,-0.04,-0.0393,-0.0387,-0.0464,-0.0464,-0.0464,0,0,-0.0025,-0.0042,-0.0026,-0.0043,-0.0067,-0.0092,-0.0091,-0.0128,-0.0145,-0.0165,-0.0209,-0.024,-0.0291,-0.0322,-0.0346,-0.0332,-0.0365,-0.0349,-0.0295,-0.031,-0.0304,-0.0299,-0.0312,-0.0308,-0.0345,-0.0345,-0.0345,0,-0.0004,0.0008,-0.0025,-0.0016,-0.0022,-0.0072,-0.0058,-0.0082,-0.0123,-0.0127,-0.0158,-0.0217,-0.0272,-0.0282,-0.0287,-0.0318,-0.0328,-0.0312,-0.03,-0.0296,-0.0292,-0.0306,-0.0304,-0.0341,-0.0342,-0.0342,-0.0342,0,0.0043,0.005,0.006,0.0053,0.0043,0.0047,0.0011,0.0001,-0.0029,-0.0054,-0.0072,-0.0138,-0.0167,-0.02,-0.0245,-0.0242,-0.0258,-0.029,-0.0309,-0.0279,-0.0298,-0.0296,-0.0336,-0.0337,-0.0338,-0.0339,0,0,0.0094,0.0094,0.0096,0.0109,0.008,0.0083,0.008,0.007,0.0093,0.0034,0.0064,-0.0024,-0.005,-0.0078,-0.0133,-0.0161,-0.0163,-0.0208,-0.0211,-0.0206,-0.0186,-0.0198,-0.0199,-0.0185,-0.0184,-0.0184,-0.0209,0,0.0139,0.0179,0.016,0.0195,0.0213,0.0172,0.0182,0.0167,0.0148,0.0164,0.0096,0.0098,-0.0004,-0.0002,-0.0048,-0.0124,-0.0155,-0.0152,-0.0228,-0.023,-0.0233,-0.0196,-0.0205,-0.0227,-0.0208,-0.0207,-0.0207,0,0.0191,0.0211,0.026,0.028,0.0286,0.03,0.0323,0.0326,0.0323,0.0313,0.0297,0.0257,0.0213,0.0129,0.0015,0.0026,-0.0071,-0.0143,-0.0146,-0.0181,-0.0239,-0.0256,-0.0225,-0.0451,-0.0205,-0.0205,-0.0206,0,0.0255,0.0281,0.0329,0.0332,0.0346,0.0369,0.0376,0.0379,0.041,0.0429,0.0468,0.04,0.0391,0.0267,0.0097,0.0068,-0.0021,-0.0081,-0.0183,-0.0185,-0.0219,-0.0225,-0.0401,-0.0154,-0.0154,-0.0154,-0.0154,0,0.0313,0.0347,0.0369,0.0397,0.0461,0.0447,0.0524,0.0521,0.0563,0.0636,0.0564,0.0615,0.0425,0.0346,0.0172,0.0012,0.0035,-0.0155,-0.0185,-0.0192,-0.0195,-0.0416,-0.0473,-0.0155,-0.0154,-0.0154,-0.0154,0,0.0375,0.0384,0.0447,0.0484,0.0497,0.0551,0.0613,0.0674,0.07,0.0804,0.0824,0.0783,0.0689,0.049,0.0298,0.0123,-0.0139,-0.0109,-0.0102,-0.0131,-0.0438,-0.0486,-0.0636,-0.0706,-0.021,-0.0211,-0.0211,0,0.0409,0.045,0.0519,0.0563,0.0584,0.0655,0.0706,0.0739,0.0819,0.0915,0.0982,0.0935,0.0931,0.0647,0.0335,0.0061,-0.0136,-0.0146,-0.0216,-0.0439,-0.0517,-0.0594,-0.0647,-0.0234,-0.0234,-0.0235,-0.0235,0,0.0478,0.051,0.0569,0.066,0.0726,0.0804,0.0889,0.0972,0.1044,0.1142,0.1258,0.1273,0.1018,0.0759,0.037,0.0144,-0.0267,-0.0162,-0.0398,-0.0539,-0.0626,-0.0713,-0.0238,-0.0238,-0.0238,-0.0238,-0.0237,-0.0237,0.0538,0.0598,0.0683,0.0769,0.0848,0.0959,0.1048,0.1157,0.1306,0.1467,0.146,0.1507,0.1122,0.0607,0.029,-0.0327,-0.0289,-0.0541,-0.0577,-0.0635,-0.0715,-0.0239,-0.0273,-0.0273,-0.0273,-0.0273,-0.0273,0,0.0611,0.0679,0.0774,0.0893,0.0998,0.1016,0.1175,0.1283,0.1475,0.1599,0.1701,0.1535,0.1057,0.0529,-0.0228,-0.0667,-0.0848,-0.0928,-0.1068,-0.1098,-0.0696,-0.0716,-0.0841,-0.084,-0.084,-0.084,-0.084,-0.084,0.0659,0.0766,0.0818,0.1004,0.1086,0.1234,0.1333,0.1492,0.1614,0.177,0.179,0.1784,0.1392,0.0096,-0.0868,-0.1106,-0.1382,-0.1458,-0.1576,-0.1352,-0.1322,-0.1293,-0.1335,-0.1587,-0.1588,-0.2002,-0.2006,-0.2009]}],[{"header":{"parameterUnit":"m.s-1","parameterCategory":2,"la1":30.2991,"la2":30.254,"lo1":-89.0895,"lo2":-89.0444,"dy":0.0017,"dx":0.0017,"nx":28,"ny":28,"refTime":"2024-03-27T09:00:00:Z","depth":"2","parameterNumber":2,"parameterNumberName":"U-component_of_CURRENTS"},"data":[0,0,0,0,0,0,0,0,0,0,0,0,0,0,0,0,0,0,0,0,0,0,0,0,0,0,0,0,0,0,0,0,0,0,0,0,0,0,0,0,0,0,0,0,0,0,0,0,0,0,0,0,0,0,0,0,0,0,0.2115,0.2116,0,0.2168,0.2168,0.2169,0.2176,0.2176,0.2176,0.2176,0.2196,0.2197,0.2198,0,0,0,0,0,0,0,0,0,0,0,0,0,0.2024,0.2025,0.2115,0.2116,0.2117,0.2168,0.2168,0.2169,0.2177,0.2176,0.2176,0.2176,0.2196,0.2197,0.2198,0,0,0,0,0,0,0,0,0,0,0,0,0,0.2066,0.2025,0.2115,0.2128,0.213,0.2168,0.2168,0.2169,0.2177,0.2176,0.2176,0.2175,0.2196,0.2197,0.2198,0.2213,0,0,0.2202,0.2202,0,0,0,0,0,0,0,0,0.2064,0.2069,0.2125,0.2128,0.213,0.2167,0.2144,0.2183,0.2177,0.2156,0.2176,0.2175,0.2186,0.2188,0.2195,0.2214,0.2215,0.2202,0.2202,0.2203,0.2203,0,0,0,0,0,0,0,0.2061,0.2067,0.2133,0.2127,0.2129,0.2134,0.2139,0.2151,0.217,0.2158,0.2159,0.217,0.2186,0.2194,0.2196,0.2215,0.2202,0.2203,0.2203,0.2204,0.2281,0.2282,0,0,0,0,0,0,0.206,0.2064,0.2132,0.2135,0.2098,0.2136,0.2141,0.2154,0.2171,0.2174,0.217,0.217,0.2192,0.2194,0.2196,0.2243,0.2203,0.2204,0.2205,0.2279,0.2281,0.2282,0,0,0,0,0,0,0.2058,0.2065,0.213,0.2103,0.2111,0.2138,0.2151,0.2155,0.2171,0.218,0.2182,0.2183,0.2192,0.2195,0.2217,0.2243,0.2205,0.2206,0.2278,0.228,0.2282,0.2318,0,0,0,0,0,0,0.2055,0.2064,0.2074,0.2103,0.2113,0.2161,0.2152,0.2156,0.2178,0.2179,0.2192,0.2193,0.2192,0.2216,0.2219,0.2243,0.2207,0.2276,0.2279,0.2281,0.2315,0.2321,0.2326,0,0,0,0,0,0.2051,0.2067,0.2074,0.2083,0.2125,0.2162,0.2168,0.2183,0.2179,0.2193,0.22,0.2193,0.2234,0.2218,0.2221,0.2247,0.2275,0.2278,0.2281,0.2313,0.232,0.2326,0,0,0,0,0,0,0.203,0.207,0.2079,0.2105,0.2136,0.2164,0.2182,0.2189,0.2207,0.2208,0.2207,0.2209,0.2241,0.224,0.2222,0.2277,0.2255,0.2258,0.2278,0.2285,0.229,0.2326,0.2208,0,0,0,0,0,0.2031,0.2056,0.2092,0.2114,0.2132,0.2157,0.2174,0.2187,0.2207,0.2215,0.2223,0.2236,0.2256,0.2266,0.2281,0.2308,0.2334,0.2329,0.2334,0.2339,0.2371,0.2427,0.2441,0.2292,0.2292,0.2292,0,0,0.2029,0.2056,0.2069,0.2112,0.2137,0.2167,0.2166,0.22,0.2225,0.2214,0.2247,0.2256,0.2268,0.2301,0.2315,0.2302,0.2392,0.2342,0.2346,0.2377,0.2432,0.2446,0.2459,0.2294,0.2294,0.2293,0,0,0.2039,0.2063,0.2088,0.2118,0.2162,0.2181,0.2192,0.2228,0.2245,0.2278,0.2279,0.2307,0.2329,0.2349,0.236,0.2406,0.242,0.2409,0.2465,0.2517,0.253,0.2542,0.2583,0.2598,0.241,0.241,0.241,0,0.2033,0.2072,0.21,0.2135,0.2164,0.2187,0.2221,0.2244,0.2281,0.2317,0.2293,0.2373,0.2357,0.2429,0.2433,0.242,0.2454,0.2434,0.2526,0.2538,0.2549,0.2588,0.2604,0.2412,0.2412,0.2411,0.2411,0,0.2064,0.2097,0.2118,0.2168,0.2201,0.2237,0.2276,0.2313,0.2331,0.2364,0.2443,0.2443,0.2504,0.2488,0.2467,0.2551,0.2549,0.2525,0.2509,0.2567,0.2603,0.262,0.2415,0.2414,0.2413,0.2413,0,0,0.2039,0.2122,0.2127,0.2164,0.2225,0.2257,0.2313,0.2385,0.2438,0.248,0.2557,0.2586,0.2619,0.2635,0.2629,0.2653,0.2725,0.2625,0.2627,0.2666,0.2851,0.2753,0.2761,0.2723,0.2726,0.2729,0.284,0,0.2054,0.2116,0.2159,0.2222,0.226,0.2317,0.2368,0.2439,0.2492,0.2566,0.2618,0.2682,0.2668,0.2697,0.2734,0.2722,0.2773,0.2698,0.2791,0.2794,0.27,0.2778,0.2589,0.2665,0.2856,0.2858,0.286,0,0.2066,0.211,0.2168,0.2265,0.2289,0.2328,0.2438,0.2495,0.261,0.2657,0.2768,0.281,0.2892,0.2841,0.294,0.2899,0.2902,0.2884,0.2888,0.2803,0.2726,0.2641,0.2688,0.2888,0.2885,0.2883,0.2882,0,0.2028,0.2119,0.2166,0.2196,0.2299,0.2349,0.2413,0.2526,0.2596,0.2731,0.2807,0.2924,0.2978,0.3029,0.3018,0.2998,0.3085,0.305,0.2986,0.2978,0.284,0.2814,0.3144,0.3144,0.3144,0.3143,0.3143,0,0.2022,0.2063,0.2153,0.2177,0.2247,0.2336,0.2432,0.2513,0.2644,0.2734,0.2868,0.2961,0.3027,0.3086,0.3075,0.3083,0.3157,0.3031,0.3014,0.2844,0.2818,0.3026,0.301,0.3148,0.3147,0.3146,0.3145,0,0.1973,0.2028,0.2087,0.2192,0.2227,0.2278,0.2425,0.2496,0.2644,0.2767,0.2823,0.3002,0.3092,0.3137,0.3177,0.3145,0.3145,0.3127,0.2913,0.2869,0.2997,0.2983,0.3108,0.3106,0.3104,0.3102,0.3101,0,0.1968,0.1986,0.2071,0.2096,0.2141,0.2237,0.2298,0.2459,0.2537,0.2784,0.283,0.2995,0.3063,0.3122,0.3092,0.3091,0.3129,0.2898,0.2821,0.303,0.3002,0.299,0.2978,0.2657,0.2652,0.2648,0.2645,0,0.1973,0.1985,0.2024,0.2044,0.2097,0.2165,0.2269,0.2324,0.2517,0.2624,0.2757,0.2839,0.2964,0.2885,0.2901,0.2869,0.288,0.2816,0.3121,0.2676,0.2608,0.2578,0.2581,0.2609,0.2613,0.2616,0.2617,0.2619,0.2004,0.2002,0.2033,0.2034,0.2052,0.2078,0.2106,0.2207,0.2298,0.244,0.2569,0.2636,0.2697,0.2642,0.2564,0.2531,0.2718,0.2606,0.2617,0.2633,0.2542,0.2472,0.2432,0.2434,0.2436,0.2438,0.244,0,0.2094,0.2072,0.2044,0.2039,0.1979,0.2028,0.2076,0.208,0.2116,0.2257,0.233,0.2197,0.2189,0.2264,0.2176,0.2168,0.214,0.2077,0.2036,0.2075,0.2109,0.1988,0.1732,0.173,0.1727,0.1724,0,0,0.2184,0.2167,0.2098,0.1994,0.195,0.1901,0.1903,0.1875,0.1931,0.1929,0.1961,0.2135,0.2233,0.1954,0.1926,0.1824,0.193,0.1759,0.2341,0.2335,0.2365,0.2443,0.2305,0,0,0,0,0]},{"header":{"parameterUnit":"m.s-1","parameterCategory":2,"la1":30.2991,"la2":30.254,"lo1":-89.0895,"lo2":-89.0444,"dy":0.0017,"dx":0.0017,"nx":28,"ny":28,"refTime":"2024-03-27T09:00:00:Z","depth":"2","parameterNumber":3,"parameterNumberName":"V-component_of_CURRENTS"},"data":[0,0,0,0,0,0,0,0,0,0,0,0,0,0,0,0,0,0,0,0,0,0,0,0,0,0,0,0,0,0,0,0,0,0,0,0,0,0,0,0,0,0,0,0,0,0,0,0,0,0,0,0,0,0,0,0,0,0,0.0002,0.0002,0,-0.0055,-0.0056,-0.0057,-0.01,-0.01,-0.01,-0.0101,-0.0161,-0.0162,-0.0164,0,0,0,0,0,0,0,0,0,0,0,0,0,0.0036,0.0036,0.0002,0.0002,0.0001,-0.0055,-0.0056,-0.0057,-0.01,-0.01,-0.0101,-0.0101,-0.0161,-0.0162,-0.0164,0,0,0,0,0,0,0,0,0,0,0,0,0,0.0004,0.0035,0.0002,-0.0027,-0.003,-0.0055,-0.0056,-0.0057,-0.01,-0.01,-0.0101,-0.0101,-0.016,-0.0162,-0.0164,-0.0166,0,0,-0.017,-0.0171,0,0,0,0,0,0,0,0,0.0006,0.0002,-0.0022,-0.0025,-0.0028,-0.007,-0.0066,-0.0093,-0.01,-0.0074,-0.0101,-0.0101,-0.013,-0.0135,-0.0145,-0.0169,-0.0171,-0.017,-0.0171,-0.0172,-0.0173,0,0,0,0,0,0,0,0.0008,0.0004,-0.0021,-0.0023,-0.0027,-0.005,-0.0055,-0.0072,-0.0099,-0.0076,-0.0079,-0.0085,-0.0132,-0.0143,-0.0147,-0.0172,-0.017,-0.0172,-0.0173,-0.0174,-0.0211,-0.0211,0,0,0,0,0,0,0.0019,0.0007,-0.0019,-0.0023,-0.0012,-0.005,-0.0056,-0.0057,-0.0099,-0.0106,-0.0084,-0.0086,-0.014,-0.0145,-0.0149,-0.0151,-0.0172,-0.0174,-0.0175,-0.0212,-0.0211,-0.0211,0,0,0,0,0,0,0.002,0.0017,-0.0017,-0.0009,-0.0015,-0.005,-0.0051,-0.0058,-0.0068,-0.0105,-0.0112,-0.0088,-0.014,-0.0146,-0.0161,-0.0154,-0.0175,-0.0177,-0.0212,-0.0212,-0.0211,-0.0156,0,0,0,0,0,0,0.0021,0.0018,0.0022,-0.0008,-0.0015,-0.0024,-0.0051,-0.0058,-0.0071,-0.0074,-0.011,-0.0116,-0.0141,-0.0158,-0.0163,-0.0157,-0.0178,-0.0212,-0.0212,-0.0211,-0.0158,-0.0154,-0.015,0,0,0,0,0,0.0023,0.0037,0.0023,0.0019,-0.0009,-0.0023,-0.0029,-0.0056,-0.007,-0.0069,-0.0096,-0.0115,-0.016,-0.0159,-0.0165,-0.0159,-0.0212,-0.0212,-0.0211,-0.016,-0.0155,-0.015,0,0,0,0,0,0,0.0054,0.0032,0.0017,0.0023,0.0003,-0.003,-0.003,-0.0051,-0.0071,-0.0073,-0.0111,-0.0119,-0.013,-0.0152,-0.015,-0.0171,-0.019,-0.0191,-0.0149,-0.0144,-0.0141,-0.012,-0.018,0,0,0,0,0,0.0063,0.0066,0.0038,0.0043,0.0037,0.0003,-0.0006,-0.0024,-0.0047,-0.0057,-0.0084,-0.0112,-0.0133,-0.0144,-0.0166,-0.0173,-0.0197,-0.0175,-0.0171,-0.0167,-0.0155,-0.0189,-0.0187,-0.021,-0.021,-0.021,0,0,0.0076,0.0064,0.0066,0.0049,0.0032,0.0033,-0.0003,-0.0009,-0.0011,-0.0059,-0.0067,-0.0098,-0.0133,-0.0144,-0.0151,-0.016,-0.0174,-0.0167,-0.0163,-0.0153,-0.0188,-0.0186,-0.0184,-0.021,-0.021,-0.021,0,0,0.0111,0.0095,0.0112,0.0098,0.0079,0.006,0.0061,0.0031,0.0015,0.0002,-0.0034,-0.0059,-0.009,-0.0116,-0.0132,-0.0119,-0.0153,-0.0128,-0.009,-0.0123,-0.0121,-0.012,-0.0148,-0.0149,-0.0125,-0.0125,-0.0125,0,0.0127,0.0141,0.0114,0.0124,0.0119,0.0076,0.0092,0.0071,0.0038,0.0033,0.0009,-0.0039,-0.0077,-0.0086,-0.0089,-0.011,-0.0131,-0.0103,-0.0117,-0.0116,-0.0116,-0.0145,-0.0147,-0.0122,-0.0123,-0.0123,-0.0123,0,0.0171,0.0179,0.0189,0.0186,0.0179,0.0184,0.0154,0.0144,0.0118,0.0094,0.0077,0.0024,0.0,-0.0025,-0.0056,-0.0067,-0.0084,-0.0108,-0.0125,-0.011,-0.0142,-0.0145,-0.0119,-0.0119,-0.012,-0.0121,0,0,0.0214,0.022,0.0222,0.0235,0.0212,0.0216,0.0213,0.0203,0.0214,0.0166,0.0175,0.0114,0.0088,0.0067,0.0024,-0.0015,-0.0046,-0.0056,-0.0059,-0.0077,-0.0113,-0.0149,-0.0157,-0.0071,-0.0071,-0.0071,-0.0136,0,0.0255,0.0296,0.0281,0.0315,0.0334,0.0296,0.0302,0.0286,0.0262,0.0258,0.0198,0.0191,0.0124,0.012,0.0069,-0.0014,-0.0052,-0.0025,-0.0131,-0.0133,-0.0162,-0.0161,-0.0132,-0.019,-0.014,-0.0141,-0.0141,0,0.0305,0.0325,0.0373,0.0389,0.0394,0.0407,0.0416,0.0417,0.0392,0.0375,0.035,0.0307,0.0253,0.0193,0.0067,0.0089,-0.0001,-0.0075,-0.008,-0.0133,-0.0176,-0.0199,-0.0199,-0.0148,-0.0147,-0.0147,-0.0146,0,0.0362,0.0388,0.0434,0.0437,0.0449,0.0466,0.0471,0.0459,0.048,0.0463,0.0489,0.0401,0.0379,0.0254,0.0095,0.0086,-0.0053,-0.0083,-0.0199,-0.0202,-0.0207,-0.0211,-0.0168,-0.0168,-0.0168,-0.0167,-0.0167,0,0.0415,0.0447,0.0469,0.0495,0.055,0.0535,0.0594,0.0581,0.0594,0.0633,0.0571,0.0583,0.0393,0.0291,0.0133,-0.0044,-0.0023,-0.0187,-0.0221,-0.0188,-0.0189,-0.0176,-0.0176,-0.017,-0.0169,-0.0169,-0.0168,0,0.0473,0.0484,0.0541,0.0572,0.0584,0.0629,0.0677,0.0718,0.0731,0.0785,0.0793,0.0717,0.0577,0.0384,0.0162,0.002,-0.0156,-0.0224,-0.0174,-0.0201,-0.0291,-0.0287,-0.0348,-0.035,-0.0352,-0.0353,-0.0354,0,0.0502,0.0541,0.0606,0.0644,0.0662,0.0723,0.0764,0.0781,0.0831,0.0865,0.0899,0.0797,0.0715,0.0395,0.0112,-0.016,-0.0184,-0.0294,-0.0314,-0.0282,-0.0309,-0.0303,-0.0298,-0.0298,-0.0299,-0.0299,-0.03,0,0.0559,0.059,0.0643,0.0723,0.0779,0.0849,0.0912,0.0969,0.0996,0.104,0.1047,0.0984,0.0694,0.0404,0.0047,-0.013,-0.0253,-0.0313,-0.029,-0.026,-0.0242,-0.0266,-0.0261,-0.0304,-0.0303,-0.0303,-0.0303,-0.0303,0.0602,0.0657,0.0731,0.0805,0.0871,0.0961,0.1026,0.1091,0.1165,0.1226,0.1142,0.1075,0.0756,0.0298,-0.0012,-0.0304,-0.03,-0.0389,-0.0384,-0.038,-0.0366,-0.0352,-0.0431,-0.0431,-0.0432,-0.0432,-0.0432,0,0.0653,0.0719,0.0796,0.0894,0.0972,0.1003,0.1113,0.1175,0.1257,0.1296,0.128,0.0993,0.068,0.0352,-0.0096,-0.0384,-0.0388,-0.0451,-0.0391,-0.0386,-0.0382,-0.0365,-0.0431,-0.0432,-0.0433,-0.0433,0,0,0.0689,0.078,0.0824,0.0959,0.1028,0.1144,0.1213,0.1285,0.1341,0.1362,0.1331,0.1225,0.0798,0.0481,0.0084,-0.0165,-0.0199,-0.0208,-0.018,-0.0057,-0.0049,-0.0322,-0.0288,0,0,0,0,0]}],[{"header":{"parameterUnit":"m.s-1","parameterCategory":2,"la1":30.2991,"la2":30.254,"lo1":-89.0895,"lo2":-89.0444,"dy":0.0017,"dx":0.0017,"nx":28,"ny":28,"refTime":"2024-03-27T09:00:00:Z","depth":"4","parameterNumber":2,"parameterNumberName":"U-component_of_CURRENTS"},"data":[0,0,0,0,0,0,0,0,0,0,0,0,0,0,0,0,0,0,0,0,0,0,0,0,0,0,0,0,0,0,0,0,0,0,0,0,0,0,0,0,0,0,0,0,0,0,0,0,0,0,0,0,0,0,0,0,0,0,0.1459,0.146,0,0.153,0.153,0.1531,0.1585,0.1586,0.1586,0.1587,0.1637,0.1638,0.1639,0,0,0,0,0,0,0,0,0,0,0,0,0,0.1364,0.1365,0.1459,0.146,0.1462,0.153,0.153,0.1531,0.1585,0.1586,0.1586,0.1587,0.1637,0.1638,0.1639,0,0,0,0,0,0,0,0,0,0,0,0,0,0.1415,0.1365,0.1459,0.1498,0.1502,0.153,0.1531,0.1531,0.1585,0.1586,0.1587,0.1588,0.1637,0.1638,0.1639,0.1624,0,0,0.1642,0.1642,0,0,0,0,0,0,0,0,0.1412,0.1418,0.1491,0.1495,0.15,0.1551,0.1515,0.1562,0.1584,0.1551,0.1587,0.1588,0.1607,0.1611,0.1619,0.1627,0.1629,0.1642,0.1643,0.1643,0.1643,0,0,0,0,0,0,0,0.1408,0.1415,0.1485,0.1492,0.1498,0.1509,0.1518,0.1524,0.1571,0.1554,0.1559,0.1569,0.1609,0.1618,0.1621,0.163,0.1642,0.1643,0.1644,0.1644,0.1714,0.1715,0,0,0,0,0,0,0.1403,0.1412,0.1483,0.1488,0.146,0.151,0.152,0.1532,0.1571,0.1579,0.1569,0.1572,0.1616,0.1619,0.1623,0.169,0.1643,0.1644,0.1645,0.1713,0.1714,0.1716,0,0,0,0,0,0,0.1401,0.1409,0.148,0.1453,0.1463,0.1511,0.1525,0.1533,0.1574,0.1583,0.159,0.1604,0.1617,0.1621,0.1662,0.1689,0.1645,0.1645,0.1711,0.1713,0.1715,0.1772,0,0,0,0,0,0,0.1398,0.1407,0.1428,0.1452,0.1465,0.1516,0.1524,0.1534,0.1578,0.1583,0.1615,0.1619,0.1618,0.166,0.1663,0.169,0.1646,0.171,0.1712,0.1714,0.1768,0.1775,0.1781,0,0,0,0,0,0.1394,0.1413,0.1429,0.1438,0.1487,0.1517,0.1525,0.156,0.1579,0.16,0.1628,0.162,0.1676,0.1662,0.1665,0.1693,0.1709,0.1711,0.1714,0.1765,0.1774,0.1781,0,0,0,0,0,0,0.1384,0.1421,0.1439,0.147,0.1502,0.1528,0.1556,0.1576,0.1615,0.1631,0.1636,0.1642,0.1689,0.1682,0.1666,0.172,0.169,0.1694,0.1729,0.1737,0.1743,0.1729,0.1647,0,0,0,0,0,0.1389,0.1418,0.145,0.1479,0.1497,0.1532,0.1555,0.158,0.161,0.163,0.1652,0.1674,0.1696,0.1711,0.1727,0.1754,0.1741,0.1773,0.1779,0.1785,0.1776,0.1781,0.1787,0.1725,0.1725,0.1725,0,0,0.1394,0.142,0.1437,0.148,0.1509,0.1538,0.1549,0.1594,0.1623,0.1627,0.1682,0.1702,0.171,0.1747,0.1766,0.1748,0.1801,0.1788,0.1793,0.1781,0.1784,0.179,0.1795,0.1727,0.1726,0.1726,0,0,0.1406,0.1442,0.1466,0.1496,0.1546,0.1564,0.1583,0.1627,0.1658,0.1706,0.1718,0.1755,0.1789,0.1799,0.1806,0.1855,0.1838,0.1866,0.1886,0.1892,0.1896,0.19,0.191,0.1915,0.1866,0.1866,0.1866,0,0.1412,0.1447,0.1478,0.1508,0.154,0.1578,0.161,0.164,0.1694,0.1714,0.1734,0.179,0.1809,0.1836,0.1864,0.1869,0.187,0.1857,0.1899,0.1903,0.1906,0.1915,0.1919,0.1869,0.1869,0.1868,0.1868,0,0.1432,0.1474,0.1494,0.1544,0.1577,0.1617,0.1657,0.1697,0.174,0.1761,0.1814,0.1843,0.1869,0.189,0.1898,0.193,0.1924,0.1911,0.1877,0.1915,0.1923,0.1926,0.1874,0.1872,0.1872,0.1871,0,0,0.1407,0.1492,0.1501,0.1532,0.1605,0.1625,0.1683,0.1728,0.1753,0.1811,0.1843,0.1897,0.191,0.1919,0.1934,0.1947,0.1991,0.1946,0.1945,0.1952,0.2011,0.1918,0.1912,0.1987,0.1987,0.1988,0.2014,0,0.1418,0.1476,0.1519,0.1576,0.1609,0.1666,0.1704,0.175,0.1794,0.1832,0.1867,0.1909,0.192,0.1949,0.1962,0.1993,0.1999,0.1985,0.1975,0.1975,0.1884,0.1912,0.1989,0.2016,0.2017,0.2017,0.2018,0,0.1415,0.1461,0.1521,0.1592,0.161,0.1651,0.1715,0.1755,0.181,0.1848,0.1888,0.1914,0.1966,0.1963,0.2009,0.2004,0.2008,0.2017,0.2018,0.1906,0.1886,0.1966,0.2023,0.2022,0.2022,0.2022,0.2021,0,0.1364,0.1453,0.1502,0.1533,0.1617,0.1658,0.1704,0.1763,0.1797,0.1866,0.1905,0.1941,0.1993,0.2001,0.2043,0.2033,0.2077,0.2059,0.1967,0.1962,0.2013,0.2008,0.2058,0.2058,0.2058,0.2058,0.2058,0,0.1341,0.138,0.149,0.1515,0.1569,0.1637,0.1684,0.1739,0.1807,0.1843,0.1912,0.1947,0.2008,0.2043,0.2048,0.2026,0.2081,0.1967,0.1956,0.204,0.2037,0.2016,0.2011,0.2059,0.2059,0.2059,0.2058,0,0.1264,0.1344,0.1403,0.1511,0.1549,0.1586,0.1685,0.1704,0.1796,0.1853,0.1888,0.1976,0.203,0.2065,0.2096,0.2036,0.2022,0.1991,0.2094,0.209,0.19,0.1898,0.188,0.1877,0.1875,0.1872,0.187,0,0.1222,0.1248,0.1382,0.1427,0.1486,0.1555,0.1594,0.1692,0.1719,0.1856,0.1872,0.1968,0.2013,0.1975,0.2024,0.2009,0.1982,0.1954,0.1902,0.1887,0.188,0.1881,0.1883,0.1866,0.1865,0.1865,0.1864,0,0.113,0.1196,0.1248,0.1353,0.1421,0.1473,0.1548,0.156,0.167,0.177,0.1813,0.1839,0.1892,0.1908,0.1913,0.1898,0.1962,0.1925,0.1929,0.188,0.187,0.1865,0.187,0.1855,0.1856,0.1857,0.1857,0,0.1053,0.1073,0.1164,0.1247,0.1338,0.138,0.1428,0.1472,0.1515,0.1668,0.168,0.1787,0.1878,0.1851,0.1859,0.184,0.1804,0.1729,0.1743,0.1754,0.1699,0.1667,0.1575,0,0,0,0,0,0.0952,0.0971,0.1047,0.1136,0.1235,0.1293,0.1386,0.1433,0.1545,0.1536,0.1603,0.1646,0.1675,0.1723,0.1675,0.18,0.1809,0.1737,0.1729,0.1802,0.1813,0.1761,0,0,0,0,0,0,0.0877,0.0932,0.0996,0.104,0.1087,0.1169,0.1232,0.1316,0.1309,0.1434,0.1451,0.1548,0.1589,0.1683,0.1644,0.1658,0.1619,0.1801,0.1796,0.1796,0.1806,0.1815,0.1765,0,0,0,0,0]},{"header":{"parameterUnit":"m.s-1","parameterCategory":2,"la1":30.2991,"la2":30.254,"lo1":-89.0895,"lo2":-89.0444,"dy":0.0017,"dx":0.0017,"nx":28,"ny":28,"refTime":"2024-03-27T09:00:00:Z","depth":"4","parameterNumber":3,"parameterNumberName":"V-component_of_CURRENTS"},"data":[0,0,0,0,0,0,0,0,0,0,0,0,0,0,0,0,0,0,0,0,0,0,0,0,0,0,0,0,0,0,0,0,0,0,0,0,0,0,0,0,0,0,0,0,0,0,0,0,0,0,0,0,0,0,0,0,0,0,0.0043,0.0043,0,0.0008,0.0008,0.0008,-0.0021,-0.0021,-0.0021,-0.0021,-0.0049,-0.005,-0.005,0,0,0,0,0,0,0,0,0,0,0,0,0,0.0063,0.0063,0.0043,0.0043,0.0043,0.0008,0.0008,0.0007,-0.0021,-0.0021,-0.0021,-0.0022,-0.0049,-0.005,-0.005,0,0,0,0,0,0,0,0,0,0,0,0,0,0.0044,0.0063,0.0044,0.0025,0.0023,0.0009,0.0008,0.0007,-0.0021,-0.0021,-0.0021,-0.0022,-0.0049,-0.005,-0.005,-0.0047,0,0,-0.0053,-0.0053,0,0,0,0,0,0,0,0,0.0045,0.0043,0.0028,0.0026,0.0024,-0.0002,0.0004,-0.0011,-0.002,-0.0004,-0.0021,-0.0022,-0.0032,-0.0034,-0.0041,-0.0049,-0.005,-0.0053,-0.0053,-0.0054,-0.0054,0,0,0,0,0,0,0,0.0046,0.0044,0.0029,0.0028,0.0025,0.001,0.0007,0.0001,-0.0016,-0.0006,-0.0008,-0.0011,-0.0033,-0.004,-0.0042,-0.005,-0.0053,-0.0053,-0.0054,-0.0054,-0.0064,-0.0064,0,0,0,0,0,0,0.0053,0.0045,0.003,0.0028,0.0034,0.001,0.0007,0.0006,-0.0016,-0.002,-0.0011,-0.0012,-0.0038,-0.0041,-0.0043,-0.0043,-0.0054,-0.0054,-0.0055,-0.0065,-0.0064,-0.0064,0,0,0,0,0,0,0.0053,0.0052,0.0032,0.0036,0.0032,0.0011,0.001,0.0006,-0.0,-0.002,-0.0024,-0.0013,-0.0039,-0.0042,-0.0048,-0.0044,-0.0055,-0.0055,-0.0065,-0.0065,-0.0064,-0.0042,0,0,0,0,0,0,0.0054,0.0052,0.0055,0.0037,0.0033,0.0029,0.001,0.0006,-0.0002,-0.0004,-0.0023,-0.0026,-0.0039,-0.0047,-0.0049,-0.0045,-0.0056,-0.0065,-0.0065,-0.0064,-0.0043,-0.0041,-0.0039,0,0,0,0,0,0.0055,0.0064,0.0056,0.0054,0.0037,0.0029,0.0026,0.0008,-0.0001,0.0,-0.0016,-0.0025,-0.0046,-0.0047,-0.005,-0.0046,-0.0065,-0.0065,-0.0064,-0.0044,-0.0041,-0.0039,0,0,0,0,0,0,0.0073,0.0062,0.0052,0.0056,0.0045,0.0025,0.0026,0.0012,0.0,-0.0,-0.0022,-0.0026,-0.0031,-0.004,-0.0041,-0.0048,-0.0057,-0.0057,-0.0041,-0.0038,-0.0037,-0.0027,-0.0056,0,0,0,0,0,0.0079,0.0083,0.0066,0.007,0.0067,0.0046,0.0041,0.003,0.0016,0.001,-0.0005,-0.0019,-0.0031,-0.0036,-0.0046,-0.0048,-0.0074,-0.0047,-0.0045,-0.0044,-0.0038,-0.0086,-0.0088,-0.0063,-0.0063,-0.0063,0,0,0.0087,0.0081,0.0083,0.0074,0.0064,0.0066,0.0042,0.004,0.0039,0.0011,0.0007,-0.0012,-0.003,-0.0036,-0.0038,-0.0042,-0.0065,-0.0043,-0.0042,-0.0036,-0.0086,-0.0088,-0.0091,-0.0063,-0.0063,-0.0063,0,0,0.011,0.01,0.0114,0.0106,0.0096,0.0084,0.0086,0.0068,0.0057,0.0051,0.0027,0.001,-0.0002,-0.0021,-0.003,-0.0023,-0.0054,-0.0024,-0.0006,-0.0053,-0.0056,-0.0059,-0.0097,-0.0103,-0.0022,-0.0022,-0.0022,0,0.012,0.0132,0.0116,0.0124,0.0123,0.0096,0.0108,0.0094,0.0074,0.0066,0.0056,0.002,0.0004,-0.0012,-0.001,-0.0019,-0.0049,-0.0014,-0.0052,-0.0055,-0.0058,-0.0097,-0.0104,-0.0021,-0.0021,-0.0021,-0.0022,0,0.0151,0.0159,0.0166,0.0168,0.0164,0.017,0.015,0.0142,0.0126,0.0106,0.0085,0.0054,0.0031,0.0022,0.001,-0.0016,-0.0032,-0.0046,-0.0058,-0.0059,-0.01,-0.0108,-0.002,-0.002,-0.002,-0.0021,0,0,0.0175,0.0187,0.0189,0.0199,0.0188,0.019,0.0188,0.0176,0.0167,0.0141,0.0123,0.0098,0.007,0.0058,0.0031,-0.0006,-0.0055,-0.003,-0.0033,-0.0069,-0.0157,-0.0147,-0.0155,-0.0081,-0.0082,-0.0083,-0.0177,0,0.0204,0.0237,0.023,0.0255,0.0269,0.0244,0.0241,0.0223,0.0197,0.017,0.0129,0.0105,0.0086,0.0071,0.0031,-0.0036,-0.0074,-0.0028,-0.0149,-0.0152,-0.0144,-0.0163,-0.0087,-0.0183,-0.0185,-0.0186,-0.0187,0,0.0236,0.0254,0.0292,0.03,0.0302,0.0312,0.0299,0.029,0.0243,0.022,0.0182,0.0139,0.0089,0.0068,-0.0042,-0.0014,-0.0077,-0.013,-0.0135,-0.0137,-0.0156,-0.0182,-0.0202,-0.0201,-0.02,-0.0199,-0.0198,0,0.027,0.0294,0.033,0.0333,0.0339,0.0349,0.0345,0.0311,0.0301,0.0249,0.0232,0.0156,0.012,0.0029,-0.0069,-0.0065,-0.0198,-0.0211,-0.0261,-0.0261,-0.0252,-0.0248,-0.0291,-0.0291,-0.029,-0.029,-0.029,0,0.0302,0.0327,0.0353,0.0373,0.0406,0.039,0.0402,0.0383,0.0346,0.0339,0.0265,0.0238,0.0107,0.0019,-0.0073,-0.0188,-0.0205,-0.026,-0.0286,-0.024,-0.0234,-0.0258,-0.0253,-0.0294,-0.0293,-0.0292,-0.0292,0,0.0331,0.035,0.0394,0.0418,0.0429,0.0453,0.0455,0.045,0.0415,0.0402,0.0389,0.0288,0.0171,0.004,-0.0119,-0.0185,-0.0302,-0.0337,-0.0273,-0.0294,-0.0335,-0.0328,-0.0412,-0.0412,-0.0412,-0.0413,-0.0413,0,0.0341,0.0371,0.0435,0.0466,0.0484,0.051,0.0521,0.0496,0.0493,0.044,0.0437,0.0321,0.0245,0.0031,-0.0114,-0.0303,-0.032,-0.0381,-0.036,-0.0331,-0.0349,-0.0341,-0.0333,-0.0414,-0.0414,-0.0414,-0.0414,0,0.0348,0.0385,0.0425,0.0501,0.0539,0.0577,0.0596,0.0597,0.0566,0.0538,0.0478,0.0358,0.0221,0.0044,-0.0107,-0.0237,-0.0345,-0.0386,-0.0386,-0.0366,-0.0335,-0.035,-0.0342,-0.0415,-0.0415,-0.0415,-0.0415,0,0.0342,0.0377,0.044,0.0508,0.0574,0.0626,0.0634,0.0626,0.0616,0.056,0.0541,0.0388,0.029,0.0077,-0.0058,-0.0193,-0.0226,-0.0257,-0.0264,-0.0265,-0.0191,-0.0128,-0.017,0,0,0,0,0,0.0313,0.0353,0.0426,0.0507,0.0591,0.0628,0.0669,0.0665,0.0643,0.0616,0.0579,0.0456,0.0238,0.0131,-0.0001,-0.0074,-0.0255,-0.0234,-0.0296,-0.0423,-0.0421,-0.0359,0,0,0,0,0,0,0.0282,0.0348,0.0409,0.0504,0.0562,0.0638,0.0672,0.0665,0.0645,0.0609,0.0494,0.0429,0.0211,0.0313,-0.0004,-0.0049,-0.0103,-0.0343,-0.0345,-0.0424,-0.0422,-0.0421,-0.0357,0,0,0,0,0]}]]